Location: Unnamed
(45.1820°N, 67.3015°W)
Time: 02:34:36
(UTC-03:00)

ARIANE 6 FM1 Upper Stage - Visible Passes

Search period start: 19 April 2026 00:00
Search period end: 29 April 2026 00:00
Orbit: 525 x 604 km, 62.0° (Epoch: 18 April)

Date Brightness Start Highest point End Pass type
(mag) Time Alt. Az. Time Alt. Az. Time Alt. Az.
19 Apr 5.4 01:04:58 10° NNW 01:06:28 16° N 01:06:28 16° N visible
20 Apr 5.3 01:04:21 10° NNW 01:05:46 17° N 01:05:46 17° N visible
21 Apr 5.2 01:03:48 10° NNW 01:05:08 18° NNW 01:05:08 18° NNW visible
21 Apr 5.4 23:25:47 10° N 23:27:06 11° NNE 23:28:24 10° NE visible
22 Apr 5.2 01:03:16 10° NNW 01:04:30 18° NNW 01:04:30 18° NNW visible
22 Apr 5.1 23:24:54 10° N 23:26:57 14° NNE 23:27:56 13° NE visible
23 Apr 5.2 01:02:46 10° NW 01:03:54 18° NNW 01:03:54 18° NNW visible
23 Apr 4.9 23:24:10 10° N 23:26:46 16° NNE 23:27:21 16° NE visible
24 Apr 5.2 01:02:19 10° NW 01:03:18 17° NW 01:03:18 17° NW visible
24 Apr 4.6 23:23:30 10° NNW 23:26:32 20° NNE 23:26:47 20° NE visible
25 Apr 5.2 01:01:57 10° NW 01:02:45 16° NW 01:02:45 16° NW visible
25 Apr 4.2 23:22:53 10° NNW 23:26:15 26° NE 23:26:15 26° NE visible
26 Apr 5.3 01:01:37 10° NW 01:02:13 14° NW 01:02:13 14° NW visible
26 Apr 5.4 21:45:44 10° NNE 21:45:51 10° NNE 21:45:57 10° NNE visible
26 Apr 3.8 23:22:19 10° NNW 23:25:44 34° NNE 23:25:44 34° NNE visible
27 Apr 5.4 01:01:25 10° WNW 01:01:42 12° WNW 01:01:42 12° WNW visible
27 Apr 5.1 21:44:10 10° N 21:45:42 12° NNE 21:47:13 10° NE visible
27 Apr 3.4 23:21:46 10° NNW 23:25:14 44° NNE 23:25:14 44° NNE visible
28 Apr 5.0 21:43:19 10° N 21:45:31 14° NNE 21:47:43 10° ENE visible
28 Apr 2.9 23:21:17 10° NW 23:24:46 59° N 23:24:46 59° N visible
